Flag for U.S.A. Weather past 2 weeks in Winston-Salem, North Carolina, U.S.A.

Now
82 °F

Sunny.


Feels Like: 81 °F
Forecast: 65 / 88 °F
Wind: 3 mph from North

Location: Smith Reynolds Airport

Current Time: Aug 2, 2015 at 1:03:26 PM

Latest Report: Aug 2, 2015 at 11:54 AM


Visibility: 10 mi

Pressure: 30.00 "Hg

Humidity: 40%

Dew point: 55 °F

Location of Winston-SalemLocation

Historic Weather in Winston-Salem — Graph

°F

Winston-Salem temperature yesterday

Maximum temperature yesterday: 89 °F (at 3:54 PM)
Minimum temperature yesterday: 63 °F (at 5:54 AM)
Average temperature yesterday: 78 °F

Past Weeks' High & Low Weather Summary

 TemperatureHumidityPressure
High93 °F (Jul 18, 3:54 PM)97% (Jul 24, 3:54 AM)30.04 "Hg (Jul 24, 3:54 AM)
Low63 °F (Aug 1, 5:54 AM)27% (Aug 1, 5:54 PM)29.71 "Hg (Jul 21, 4:54 PM)
Average79 °F70%29.94 "Hg
* Reported Jul 18 11:54 AM — Aug 2 11:54 AM, Winston-Salem, Weather by CustomWeather, © 2015

Note: Actual official high and low records may vary slightly from our data, if they occured in-between our weather recording intervals... More about our weather records

Advertising

Winston-Salem weather history for previous 24 hours

 ConditionsComfort  
Time TempWeatherWind HumidityBarometerVisibility
11:54 AM
Sun, Aug 2
82 °FSunny.3 mph40%30.00 "Hg10 mi
10:54 AM80 °FSunny.7 mph45%30.00 "Hg10 mi
9:54 AM78 °FSunny.6 mph50%30.00 "Hg10 mi
8:54 AM75 °FSunny.7 mph58%29.99 "Hg10 mi
7:54 AM72 °FSunny.7 mph61%29.97 "Hg10 mi
6:54 AM68 °FClear.5 mph68%29.97 "Hg10 mi
5:54 AM69 °FPassing clouds.5 mph66%29.95 "Hg10 mi
4:54 AM69 °FPassing clouds.3 mph66%29.94 "Hg10 mi
3:54 AM69 °FClear.3 mph66%29.94 "Hg10 mi
2:54 AM71 °FClear.No wind61%29.94 "Hg10 mi
1:54 AM72 °FClear.5 mph59%29.95 "Hg10 mi
12:54 AM70 °FClear.No wind66%29.94 "Hg10 mi
11:54 PM
Sat, Aug 1
75 °FClear.3 mph52%29.93 "Hg10 mi
10:54 PM77 °FClear.6 mph48%29.93 "Hg10 mi
9:54 PM78 °FClear.3 mph48%29.92 "Hg10 mi
8:54 PM81 °FSunny.6 mph45%29.90 "Hg10 mi
7:54 PM86 °FSunny.3 mph36%29.89 "Hg10 mi
6:54 PM88 °FSunny.9 mph31%29.88 "Hg10 mi
5:54 PM89 °FSunny.7 mph27%29.89 "Hg10 mi
4:54 PM89 °FSunny.5 mph28%29.89 "Hg10 mi
3:54 PM89 °FPassing clouds.9 mph31%29.90 "Hg10 mi
2:54 PM87 °FPassing clouds.5 mph36%29.92 "Hg10 mi
1:54 PM88 °FPartly sunny.N/A38%29.93 "Hg10 mi
Weather by CustomWeather, © 2015

See weather overviewHow to use our weather pages